EW4814 Weather Reports


time (UTC)temp
C
wind
direction
speed
KPH
gust
KPH
rain 1hr
cm
rain 24hr
cm
rain mn
cm
humidity
%
barometer
mb
20260503190113 13 315 12.9 32.2 0.00 0.00 0.00 38 1010.8
20260503185004 13 260 9.7 25.7 0.00 0.00 0.00 46 1011.6
20260503184549 13 190 6.4 22.5 0.00 0.00 0.00 40 1011.0
20260503183117 13 310 9.7 29.0 0.00 0.00 0.00 43 1011.1
20260503181523 13 343 14.5 24.1 0.00 0.00 0.00 42 1011.3
20260503180143 12 343 11.3 30.6 0.00 0.00 0.00 43 1011.3
20260503174531 12 305 14.5 32.2 0.00 0.00 0.00 41 1011.3
20260503174525 12 309 14.5 32.2 0.00 0.00 0.00 41 1012.2
20260503173018 12 253 9.7 29.0 0.00 0.00 0.00 45 1011.5
20260503172005 12 311 12.9 25.7 0.00 0.00 0.00 47 1012.2
20260503171618 12 279 9.7 25.7 0.00 0.00 0.00 50 1011.7
20260503171004 12 300 12.9 27.4 0.00 0.00 0.00 46 1012.2
20260503130120 8 345 9.7 25.7 0.00 0.00 0.00 60 1012.1
20260503110133 7 334 11.3 24.1 0.00 0.00 0.00 60 1011.3
20260503081507 7 360 4.8 9.7 0.00 0.00 0.00 65 1010.1
20260503071547 7 355 4.8 9.7 0.00 0.00 0.00 62 1009.3
20260503071003 7 351 6.4 11.3 0.00 0.00 0.00 62 1009.9
20260503054007 9 323 4.8 12.9 0.00 0.00 0.00 57 1010.4
20260503053504 9 335 4.8 12.9 0.00 0.00 0.00 56 1010.5
20260503053130 9 324 3.2 12.9 0.00 0.00 0.00 56 1009.8
20260503053007 9 337 6.4 12.9 0.00 0.00 0.00 56 1010.4
20260503051538 9 340 3.2 12.9 0.00 0.00 0.00 56 1009.8
20260503050041 9 325 3.2 8.0 0.00 0.00 0.00 56 1009.9
20260503044005 10 322 3.2 8.0 0.00 0.00 0.00 55 1010.9
20260503043108 10 330 3.2 8.0 0.00 0.00 0.00 54 1010.2
20260503041526 10 325 4.8 12.9 0.00 0.00 0.00 53 1010.2
20260503040120 10 320 3.2 9.7 0.00 0.00 0.00 53 1010.3
20260503040029 10 321 4.8 9.7 0.00 0.00 0.00 52 1011.0
20260503034615 10 336 4.8 12.9 0.00 0.00 0.00 52 1010.2
20260503034505 10 319 6.4 12.9 0.00 0.00 0.00 52 1010.9
20260503031600 10 335 4.8 14.5 0.00 0.00 0.00 52 1010.1
20260503031503 11 329 6.4 14.5 0.00 0.00 0.00 53 1010.8
20260503030104 10 338 6.4 12.9 0.00 0.00 0.00 53 1010.1
20260503024616 10 320 4.8 9.7 0.00 0.00 0.00 53 1010.2
20260503024004 11 316 3.2 4.8 0.00 0.00 0.00 53 1010.9
20260503023013 10 312 3.2 8.0 0.00 0.00 0.00 53 1010.2
20260503022006 11 327 3.2 6.4 0.00 0.00 0.00 53 1011.0
20260503021508 11 332 3.2 6.4 0.00 0.00 0.00 52 1010.3
20260503020003 11 312 1.6 6.4 0.00 0.00 0.00 51 1010.3
20260503014538 11 338 3.2 8.0 0.00 0.00 0.00 50 1010.2
20260503013113 11 350 3.2 6.4 0.00 0.00 0.00 50 1010.1
20260503012504 12 312 4.8 8.0 0.00 0.00 0.00 50 1010.8
20260503012011 12 310 4.8 8.0 0.00 0.00 0.00 49 1010.8
20260503011537 11 334 4.8 8.0 0.00 0.00 0.00 48 1010.2
20260503010010 11 300 3.2 8.0 0.00 0.00 0.00 48 1010.1
20260503010005 12 327 3.2 8.0 0.00 0.00 0.00 48 1010.8
20260503004534 12 312 3.2 9.7 0.00 0.00 0.00 48 1009.8
20260503004504 12 321 3.2 9.7 0.00 0.00 0.00 49 1010.4
20260503003113 12 306 1.6 6.4 0.00 0.00 0.00 50 1009.7
20260503001522 12 286 0.0 4.8 0.00 0.00 0.00 49 1009.6
20260503000020 12 308 3.2 6.4 0.00 0.00 0.00 47 1009.3
20260502234525 12 329 4.8 6.4 0.00 0.00 0.00 47 1009.3
20260502233503 13 333 4.8 9.7 0.00 0.00 0.00 47 1009.9
20260502233107 12 329 4.8 9.7 0.00 0.00 0.00 46 1009.2
20260502231634 13 355 4.8 12.9 0.00 0.00 0.00 44 1009.3
20260502231504 13 324 6.4 16.1 0.00 0.00 0.00 44 1010.1
20260502225505 15 318 8.0 19.3 0.00 0.00 0.00 41 1010.0
20260502223009 15 331 9.7 19.3 0.00 0.00 0.00 41 1009.0
20260502222508 15 354 12.9 20.9 0.00 0.00 0.00 41 1009.6
20260502221603 15 347 12.9 20.9 0.00 0.00 0.00 39 1008.8
20260502220011 15 30 3.2 9.7 0.00 0.00 0.00 40 1009.6
20260502214542 15 329 3.2 6.4 0.00 0.00 0.00 43 1009.0
20260502213150 15 253 1.6 12.9 0.00 0.00 0.00 42 1009.0
20260502211556 15 323 3.2 14.5 0.00 0.00 0.00 45 1008.9
20260502211005 15 285 4.8 14.5 0.00 0.00 0.00 45 1009.5
20260502210046 15 238 3.2 6.4 0.00 0.00 0.00 44 1008.6
20260502205004 15 323 6.4 14.5 0.00 0.00 0.00 47 1009.3
20260502204532 15 223 6.4 14.5 0.00 0.00 0.00 45 1008.7
20260502204504 15 324 6.4 12.9 0.00 0.00 0.00 45 1009.4
20260502203108 15 290 3.2 17.7 0.00 0.00 0.00 46 1008.8
20260502201531 15 332 8.0 20.9 0.00 0.00 0.00 47 1009.0
20260502201527 15 318 6.4 20.9 0.00 0.00 0.00 45 1009.7
20260502200510 15 314 4.8 12.9 0.00 0.00 0.00 48 1009.8
20260502200017 14 295 4.8 11.3 0.00 0.00 0.00 47 1009.1
20260502194601 14 238 3.2 16.1 0.00 0.00 0.00 46 1009.3
20260502192011 15 304 6.4 16.1 0.00 0.00 0.00 49 1010.4
20260502191659 15 322 8.0 16.1 0.00 0.00 0.00 48 1009.8
20260502191004 15 309 9.7 20.9 0.00 0.00 0.00 46 1010.5